FW5217 Weather Reports


Display with metric or nautical units.
time (UTC)temp
F
wind
direction
speed
MPH
gust
MPH
rain 1hr
in
rain 24hr
in
rain mn
in
humidity
%
barometer
mb
20200709183409 94 348 3.0 9.0 0.00 0.00 0.00 60 1012.7
20200709182826 93 338 3.0 8.0 0.00 0.00 0.00 60 1012.7
20200709182346 93 281 4.0 8.0 0.00 0.00 0.00 63 1012.8
20200709181339 92 308 2.0 11.0 0.00 0.00 0.00 63 1012.9
20200709180900 92 285 3.0 11.0 0.00 0.00 0.00 63 1013.1
20200709180425 93 321 3.0 9.0 0.00 0.00 0.00 64 1013.1
20200709175925 93 284 4.0 9.0 0.00 0.00 0.00 62 1013.1
20200709175336 93 279 3.0 9.0 0.00 0.00 0.00 63 1013.2
20200709174854 93 298 5.0 9.0 0.00 0.00 0.00 63 1013.2
20200709174415 93 330 2.0 8.0 0.00 0.00 0.00 65 1013.1
20200709173828 93 238 2.0 8.0 0.00 0.00 0.00 66 1013.2
20200709173353 92 339 3.0 8.0 0.00 0.00 0.00 66 1013.2
20200709172917 92 34 2.0 8.0 0.00 0.00 0.00 67 1013.3
20200709172336 92 313 3.0 8.0 0.00 0.00 0.00 68 1013.4
20200709171853 91 355 3.0 8.0 0.00 0.00 0.00 67 1013.4
20200709171418 92 252 4.0 10.0 0.00 0.00 0.00 65 1013.5
20200709170836 91 317 4.0 10.0 0.00 0.00 0.00 66 1013.5
20200709170357 91 334 4.0 9.0 0.00 0.00 0.00 67 1013.6
20200709165855 91 9 2.0 9.0 0.00 0.00 0.00 67 1013.5
20200709165401 91 327 3.0 11.0 0.00 0.00 0.00 68 1013.6
20200709164923 91 330 5.0 11.0 0.00 0.00 0.00 67 1013.6
20200709164436 91 288 3.0 8.0 0.00 0.00 0.00 67 1013.7
20200709163348 90 5 4.0 13.0 0.00 0.00 0.00 69 1013.8
20200709162914 90 342 3.0 9.0 0.00 0.00 0.00 70 1013.6
20200709162326 90 209 5.0 10.0 0.00 0.00 0.00 69 1013.7
20200709161845 90 238 4.0 10.0 0.00 0.00 0.00 72 1013.7
20200709161411 90 309 2.0 10.0 0.00 0.00 0.00 72 1013.9
20200709160833 89 272 4.0 9.0 0.00 0.00 0.00 69 1013.9
20200709160355 89 346 4.0 10.0 0.00 0.00 0.00 71 1013.9
20200709155854 89 331 4.0 10.0 0.00 0.00 0.00 71 1013.9
20200709155415 89 301 1.0 7.0 0.00 0.00 0.00 74 1013.9
20200709154830 89 311 2.0 7.0 0.00 0.00 0.00 72 1014.1
20200709154351 89 258 3.0 9.0 0.00 0.00 0.00 73 1014.1
20200709153342 89 360 3.0 6.0 0.00 0.00 0.00 73 1014.0
20200709152902 88 338 2.0 10.0 0.00 0.00 0.00 73 1014.0
20200709152421 88 288 5.0 10.0 0.00 0.00 0.00 73 1014.1
20200709151838 88 225 3.0 10.0 0.00 0.00 0.00 74 1014.0
20200709151358 88 239 3.0 10.0 0.00 0.00 0.00 74 1014.1
20200709150922 88 21 4.0 10.0 0.00 0.00 0.00 73 1014.0
20200709150335 88 9 2.0 8.0 0.00 0.00 0.00 75 1014.0
20200709145835 88 298 3.0 9.0 0.00 0.00 0.00 74 1014.0
20200709145355 88 314 2.0 9.0 0.00 0.00 0.00 77 1014.1
20200709144917 87 308 2.0 9.0 0.00 0.00 0.00 77 1014.0
20200709144331 87 344 3.0 10.0 0.00 0.00 0.00 78 1014.1
20200709143851 86 300 3.0 10.0 0.00 0.00 0.00 78 1014.0
20200709143437 87 355 5.0 10.0 0.00 0.00 0.00 77 1014.1
20200709142921 87 288 2.0 9.0 0.00 0.00 0.00 76 1014.1
20200709142326 87 321 2.0 9.0 0.00 0.00 0.00 79 1014.1
20200709141850 86 340 5.0 9.0 0.00 0.00 0.00 77 1014.1
20200709140852 85 5 3.0 8.0 0.00 0.00 0.00 80 1014.3
20200709140408 85 284 2.0 8.0 0.00 0.00 0.00 81 1014.2
20200709135902 85 11 3.0 10.0 0.00 0.00 0.00 82 1014.0
20200709135421 85 329 4.0 10.0 0.00 0.00 0.00 81 1014.1
20200709134836 85 292 2.0 9.0 0.00 0.00 0.00 82 1014.0
20200709134359 85 267 4.0 9.0 0.00 0.00 0.00 82 1014.0
20200709133923 85 304 3.0 9.0 0.00 0.00 0.00 82 1014.0
20200709133337 85 319 3.0 9.0 0.00 0.00 0.00 82 1013.9
20200709132858 84 325 2.0 9.0 0.00 0.00 0.00 83 1014.0
20200709132418 84 290 4.0 9.0 0.00 0.00 0.00 83 1014.1
20200709131839 84 355 3.0 9.0 0.00 0.00 0.00 84 1014.0
20200709131358 83 293 3.0 8.0 0.00 0.00 0.00 85 1014.1
20200709130918 83 355 2.0 9.0 0.00 0.00 0.00 85 1014.1
20200709130332 83 26 4.0 9.0 0.00 0.00 0.00 86 1014.1
20200709125829 82 282 3.0 9.0 0.00 0.00 0.00 87 1014.0
20200709125352 82 246 4.0 8.0 0.00 0.00 0.00 87 1014.0
20200709124912 82 5 2.0 7.0 0.00 0.00 0.00 89 1014.1
20200709124326 81 298 2.0 7.0 0.00 0.00 0.00 89 1014.1
20200709123851 81 281 3.0 5.0 0.00 0.00 0.00 89 1014.0
20200709123412 81 313 2.0 7.0 0.00 0.00 0.00 90 1014.0
20200709122825 80 283 3.0 7.0 0.00 0.00 0.00 90 1013.9
20200709122345 80 284 2.0 4.0 0.00 0.00 0.00 91 1014.0
20200709121905 79 338 2.0 5.0 0.00 0.00 0.00 92 1013.9
20200709121324 79 328 1.0 5.0 0.00 0.00 0.00 93 1014.0
20200709120845 79 325 2.0 5.0 0.00 0.00 0.00 93 1013.8
20200709120406 78 345 3.0 5.0 0.00 0.00 0.00 94 1013.7
20200709115859 78 309 1.0 3.0 0.00 0.00 0.00 94 1013.7
20200709115423 78 248 1.0 3.0 0.00 0.00 0.00 95 1013.7
20200709114841 77 248 1.0 4.0 0.00 0.00 0.00 95 1013.7
20200709114401 77 248 1.0 4.0 0.00 0.00 0.00 95 1013.8
20200709113903 77 271 1.0 3.0 0.00 0.00 0.00 96 1013.6
20200709113425 77 249 0.0 2.0 0.00 0.00 0.00 96 1013.6
20200709112850 77 246 1.0 2.0 0.00 0.00 0.00 96 1013.5
20200709112411 77 242 0.0 1.0 0.00 0.00 0.00 96 1013.5
20200709111825 76 242 0.0 2.0 0.00 0.00 0.00 96 1013.4
20200709111345 76 242 0.0 2.0 0.00 0.00 0.00 96 1013.4
20200709110340 76 242 1.0 2.0 0.00 0.00 0.00 96 1013.3
20200709105830 76 242 1.0 2.0 0.00 0.00 0.00 96 1013.4
20200709105357 76 242 1.0 3.0 0.00 0.00 0.00 96 1013.3
20200709104349 76 241 1.0 3.0 0.00 0.00 0.00 96 1013.1
20200709103909 76 234 0.0 3.0 0.00 0.00 0.00 96 1013.2
20200709103329 76 234 1.0 3.0 0.00 0.00 0.00 96 1013.2
20200709102850 76 248 1.0 3.0 0.00 0.00 0.00 96 1013.1
20200709102416 76 244 1.0 3.0 0.00 0.00 0.00 96 1013.2
20200709101830 76 263 1.0 2.0 0.00 0.00 0.00 96 1013.2
20200709101351 76 263 1.0 3.0 0.00 0.00 0.00 96 1013.0
20200709100911 76 263 1.0 3.0 0.00 0.00 0.00 96 1013.0
20200709100328 76 263 2.0 4.0 0.00 0.00 0.00 96 1013.0
20200709095828 76 298 1.0 4.0 0.00 0.00 0.00 96 1013.0
20200709095347 76 294 1.0 3.0 0.00 0.00 0.00 96 1012.9
20200709094854 76 233 2.0 3.0 0.00 0.00 0.00 96 1012.9
20200709094414 76 262 1.0 3.0 0.00 0.00 0.00 96 1012.8
20200709093827 76 283 1.0 6.0 0.00 0.00 0.00 96 1012.8
20200709093353 76 261 2.0 6.0 0.00 0.00 0.00 96 1012.9
20200709092919 76 246 1.0 4.0 0.00 0.00 0.00 96 1012.8
20200709092331 76 281 1.0 4.0 0.00 0.00 0.00 96 1012.7
20200709091849 76 257 1.0 4.0 0.00 0.00 0.00 96 1012.6
20200709090839 76 294 1.0 4.0 0.00 0.00 0.00 96 1012.8
20200709090405 76 254 1.0 2.0 0.00 0.00 0.00 96 1012.8
20200709085919 76 254 1.0 2.0 0.00 0.00 0.00 96 1012.9
20200709085333 76 263 1.0 2.0 0.00 0.00 0.00 96 1012.8
20200709084854 76 263 1.0 2.0 0.00 0.00 0.00 96 1012.9
20200709084410 76 263 1.0 2.0 0.00 0.00 0.00 96 1013.0
20200709083831 76 256 0.0 2.0 0.00 0.00 0.00 96 1013.0
20200709083351 77 256 1.0 3.0 0.00 0.00 0.00 96 1013.0
20200709082916 77 256 1.0 3.0 0.00 0.00 0.00 96 1012.9
20200709082329 77 257 1.0 3.0 0.00 0.00 0.00 96 1012.8
20200709081857 77 252 0.0 3.0 0.00 0.00 0.00 96 1012.9
20200709081419 77 252 1.0 3.0 0.00 0.00 0.00 96 1012.8
20200709080831 77 252 1.0 2.0 0.00 0.00 0.00 95 1012.7
20200709080357 77 252 1.0 2.0 0.00 0.00 0.00 95 1012.6
20200709075848 77 252 1.0 3.0 0.00 0.00 0.00 95 1012.5
20200709074840 77 257 1.0 3.0 0.00 0.00 0.00 95 1012.8
20200709074401 77 263 1.0 2.0 0.00 0.00 0.00 95 1012.7
20200709073921 77 263 0.0 4.0 0.00 0.00 0.00 95 1012.6
20200709073349 77 265 2.0 4.0 0.00 0.00 0.00 95 1012.8
20200709072341 77 265 1.0 2.0 0.00 0.00 0.00 95 1012.7
20200709071900 77 265 1.0 2.0 0.00 0.00 0.00 95 1012.7
20200709071419 77 265 1.0 3.0 0.00 0.00 0.00 95 1012.7
20200709070833 77 265 1.0 3.0 0.00 0.00 0.00 95 1012.6
20200709070348 77 266 1.0 2.0 0.00 0.00 0.00 95 1012.7
20200709065847 77 266 1.0 3.0 0.00 0.00 0.00 95 1012.6
20200709064844 77 266 1.0 2.0 0.00 0.00 0.00 95 1012.6
20200709063834 78 266 0.0 3.0 0.00 0.00 0.00 95 1012.5
20200709063356 78 264 1.0 3.0 0.00 0.00 0.00 95 1012.6
20200709062917 78 302 0.0 3.0 0.00 0.00 0.00 95 1012.7
20200709062332 78 302 1.0 3.0 0.00 0.00 0.00 95 1012.7
20200709061851 78 302 1.0 2.0 0.00 0.00 0.00 95 1012.7
20200709061414 78 306 1.0 2.0 0.00 0.00 0.00 94 1012.7
20200709060828 78 319 1.0 2.0 0.00 0.00 0.00 94 1012.9
20200709060345 78 320 1.0 2.0 0.00 0.00 0.00 94 1013.0
20200709055829 78 319 1.0 2.0 0.00 0.00 0.00 94 1013.0
20200709055332 78 319 1.0 2.0 0.00 0.00 0.00 94 1012.9
20200709054836 78 319 1.0 2.0 0.00 0.00 0.00 94 1012.8
20200709054324 78 319 0.0 2.0 0.00 0.00 0.00 93 1012.9
20200709053827 78 319 0.0 2.0 0.00 0.00 0.00 93 1013.0
20200709053332 78 319 0.0 2.0 0.00 0.00 0.00 93 1013.1
20200709052835 78 319 0.0 2.0 0.00 0.00 0.00 93 1013.2
20200709052339 79 319 0.0 2.0 0.00 0.00 0.00 93 1013.2
20200709051841 79 319 0.0 2.0 0.00 0.00 0.00 93 1013.4
20200709051325 79 319 1.0 4.0 0.00 0.00 0.00 93 1013.4
20200709050830 79 319 1.0 4.0 0.00 0.00 0.00 93 1013.3
20200709050334 79 306 1.0 4.0 0.00 0.00 0.00 93 1013.3
20200709045828 79 330 1.0 4.0 0.00 0.00 0.00 93 1013.4
20200709045332 79 295 1.0 3.0 0.00 0.00 0.00 93 1013.5
20200709044839 79 331 1.0 3.0 0.00 0.00 0.00 92 1013.5
20200709044341 79 260 1.0 3.0 0.00 0.00 0.00 93 1013.4
20200709043825 79 285 1.0 3.0 0.00 0.00 0.00 92 1013.5
20200709043330 79 285 1.0 3.0 0.00 0.00 0.00 92 1013.5
20200709042831 79 247 1.0 3.0 0.00 0.00 0.00 92 1013.5
20200709042335 79 251 1.0 3.0 0.00 0.00 0.00 92 1013.5
20200709041838 79 248 1.0 2.0 0.00 0.00 0.00 92 1013.7
20200709041340 80 244 1.0 2.0 0.00 0.00 0.00 92 1013.8
20200709040842 80 244 0.0 2.0 0.00 0.00 0.00 92 1013.7
20200709040326 80 244 0.0 3.0 0.00 0.00 0.00 92 1013.9
20200709035856 80 238 1.0 3.0 0.00 0.00 0.00 92 1013.7
20200709035416 80 238 1.0 2.0 0.00 0.00 0.00 92 1013.8
20200709034836 80 238 0.0 2.0 0.00 0.00 0.00 91 1013.9
20200709034358 80 238 1.0 2.0 0.00 0.00 0.00 91 1013.9
20200709033918 80 238 1.0 3.0 0.00 0.00 0.00 91 1013.9
20200709033333 80 238 2.0 3.0 0.00 0.00 0.00 91 1013.9
20200709032852 80 257 1.0 4.0 0.00 0.00 0.00 91 1013.9
20200709031843 81 234 1.0 5.0 0.00 0.00 0.00 90 1014.0
20200709031405 81 300 1.0 6.0 0.00 0.00 0.00 89 1013.9
20200709030921 81 300 2.0 6.0 0.00 0.00 0.00 89 1013.9
20200709030335 81 257 2.0 7.0 0.00 0.00 0.00 89 1013.9
20200709025832 81 250 2.0 4.0 0.00 0.00 0.00 89 1013.9
20200709025351 81 355 1.0 3.0 0.00 0.00 0.00 90 1013.8
20200709024345 81 255 1.0 5.0 0.00 0.00 0.00 90 1013.8
20200709023900 81 285 2.0 5.0 0.00 0.00 0.00 89 1013.8
20200709023422 81 315 2.0 5.0 0.00 0.00 0.00 89 1013.7
20200709022836 81 269 2.0 6.0 0.00 0.00 0.00 89 1013.5
20200709022355 81 355 2.0 6.0 0.00 0.00 0.00 88 1013.4
20200709021918 81 360 1.0 6.0 0.00 0.00 0.00 89 1013.3
20200709021338 81 26 1.0 6.0 0.00 0.00 0.00 90 1013.2
20200709020903 81 350 1.0 3.0 0.00 0.00 0.00 90 1013.1
20200709020423 81 13 1.0 4.0 0.00 0.00 0.00 89 1013.0
20200709015836 81 351 1.0 5.0 0.00 0.00 0.00 89 1013.1
20200709015357 82 300 2.0 5.0 0.00 0.00 0.00 89 1013.0
20200709014928 82 300 0.0 2.0 0.00 0.00 0.00 90 1013.0
20200709014339 82 336 1.0 4.0 0.00 0.00 0.00 89 1013.0
20200709013859 82 288 1.0 4.0 0.00 0.00 0.00 89 1013.1
20200709013428 82 301 1.0 4.0 0.00 0.00 0.00 89 1013.0
20200709012833 82 306 1.0 3.0 0.00 0.00 0.00 89 1013.0
20200709012354 82 306 0.0 3.0 0.00 0.00 0.00 89 1012.9
20200709011920 82 306 2.0 4.0 0.00 0.00 0.00 88 1012.8
20200709011339 82 280 0.0 3.0 0.00 0.00 0.00 88 1012.7
20200709010850 82 280 1.0 2.0 0.00 0.00 0.00 88 1012.7
20200709005833 82 280 0.0 3.0 0.00 0.00 0.00 87 1012.6
20200709005356 82 232 2.0 3.0 0.00 0.00 0.00 87 1012.6
20200709004928 82 293 1.0 3.0 0.00 0.00 0.00 87 1012.5
20200709004324 82 246 1.0 4.0 0.00 0.00 0.00 87 1012.4
20200709003833 82 246 2.0 4.0 0.00 0.00 0.00 86 1012.4
20200709003338 82 275 1.0 4.0 0.00 0.00 0.00 86 1012.6
20200709002842 82 267 1.0 3.0 0.00 0.00 0.00 86 1012.5
20200709002348 82 264 1.0 3.0 0.00 0.00 0.00 86 1012.4
20200709001853 82 265 0.0 2.0 0.00 0.00 0.00 85 1012.4
20200709001359 83 265 1.0 2.0 0.00 0.00 0.00 85 1012.3
20200709000903 83 265 1.0 3.0 0.00 0.00 0.00 85 1012.3
20200709000409 83 262 1.0 3.0 0.00 0.00 0.00 85 1012.2
20200708235849 83 262 1.0 3.0 0.00 0.00 0.00 85 1012.3
20200708235411 83 262 1.0 3.0 0.00 0.00 0.00 85 1012.4
20200708234914 83 262 1.0 2.0 0.00 0.00 0.00 86 1012.3
20200708234329 82 262 1.0 3.0 0.00 0.00 0.00 86 1012.2
20200708233839 83 262 0.0 3.0 0.00 0.00 0.00 86 1012.3
20200708233405 82 262 2.0 3.0 0.00 0.00 0.00 86 1012.3
20200708232826 82 262 1.0 6.0 0.00 0.00 0.00 86 1012.3